Location: Innerarity Island Observatory
(30.3139°N, 87.4867°W)
Time: 02:25:11
(UTC-05:00)

Amateur Radio Satellites - All Passes

Search period start: 16 September 2014 01:55
Search period end: 17 September 2014 01:55
Location: Innerarity Island Observatory, 30.3139°N, 87.4867°W

Satellite Date Start Highest point End Downlink Frequencies (MHz)
Time Altitude Azimuth
ITAMSAT 1 16 Sep 02:11:40 02:15:51 24° 97° (E) 02:20:00 435.822 SSB
UOSAT-12 16 Sep 02:14:33 02:17:18 16° 308° (NW) 02:20:05 437.025 FM, 437.400 FM
ISS 16 Sep 02:15:23 02:16:08 11° 125° (SE) 02:16:52 145.800 FM
Uribyol 2 16 Sep 02:16:41 02:21:12 29° 98° (E) 02:25:42 436.500 FM
AO-Echo 16 Sep 02:22:28 02:26:56 37° 99° (E) 02:31:31 ?
Saudisat 1A 16 Sep 02:28:54 02:30:50 13° 51° (NE) 02:32:44 436.775 MHz
Oscar 19 16 Sep 02:37:13 02:42:22 68° 285° (WNW) 02:47:27 437.125 CW, 437.150 USB
AO-27 16 Sep 02:44:47 02:49:55 56° 101° (E) 02:55:01 436.795 MHz FM
PANSAT 16 Sep 02:55:40 02:59:06 31° 163° (SSE) 03:02:32 not established
Gurwin Techsat 1B 16 Sep 03:14:30 03:19:38 49° 100° (E) 03:24:45 435.225 FM
Oscar 16 16 Sep 03:16:03 03:20:17 26° 290° (WNW) 03:24:30 437.025 USB, Beacon 2401.1428
JAS-1B 16 Sep 03:20:44 03:26:25 67° 286° (WNW) 03:32:06 435.800 - 435.900 CW/SSB
ISS 16 Sep 03:49:17 03:52:30 45° 317° (NW) 03:55:42 145.800 FM
AO-7 16 Sep 03:50:15 03:55:56 20° 96° (E) 04:01:35 29.400 - 29.500 MHz
ITAMSAT 1 16 Sep 03:50:45 03:55:15 31° 289° (WNW) 03:59:46 435.822 SSB
TMSAT-1 16 Sep 03:54:04 03:59:23 90° 281° (W) 04:04:42 436.925 FM
Uribyol 2 16 Sep 03:56:16 04:00:29 25° 290° (WNW) 04:04:42 436.500 FM
AO-Echo 16 Sep 04:02:11 04:05:25 18° 291° (WNW) 04:08:41 ?
Saudisat 1A 16 Sep 04:06:23 04:10:41 54° 246° (WSW) 04:14:58 436.775 MHz
KITSAT 1 16 Sep 04:22:24 04:28:06 20° 49° (NE) 04:33:46 435.175 FM
AO-27 16 Sep 04:26:22 04:28:53 14° 294° (WNW) 04:31:24 436.795 MHz FM
RS-15 16 Sep 04:31:33 04:42:35 69° 112° (ESE) 04:53:22 29.354 - 29.394 USB, Beacon 29.352 USB
PANSAT 16 Sep 04:35:15 04:39:03 63° 175° (S) 04:42:51 not established
OPAL 16 Sep 04:53:57 04:59:05 80° 255° (WSW) 05:04:18 ?
Gurwin Techsat 1B 16 Sep 04:56:00 04:59:08 16° 293° (WNW) 05:02:16 435.225 FM
Uosat F 16 Sep 05:07:16 05:12:18 79° 103° (ESE) 05:17:19 435.120 FM
Oscar 10/S400 16 Sep 05:27:17 06:06:52 13° 261° (W) 07:02:17 145.825 - 145.975 CW/USB, Beacon 145.810 USB
Hamsat 16 Sep 05:39:56 05:42:06 14° 94° (E) 05:44:16 145.90 MHz
AO-7 16 Sep 05:40:55 05:49:07 68° 290° (WNW) 05:57:18 29.400 - 29.500 MHz
PANSAT 16 Sep 06:15:20 06:19:07 58° 188° (S) 06:22:54 not established
KITSAT 1 16 Sep 06:16:11 06:24:14 78° 247° (WSW) 06:32:16 435.175 FM
JAS-2 16 Sep 06:41:33 06:47:38 84° 103° (ESE) 06:54:31 435.800 - 435.900 CW/SSB, 435.910 FM
RS-15 16 Sep 06:46:27 06:55:38 29° 312° (NW) 07:04:47 29.354 - 29.394 USB, Beacon 29.352 USB
STRAND 1 16 Sep 07:07:28 07:12:32 75° 258° (WSW) 07:17:37 ?
Hamsat 16 Sep 07:14:16 07:18:07 34° 286° (WNW) 07:21:55 145.90 MHz
AO-7 16 Sep 07:38:51 07:40:22 11° 306° (NW) 07:41:54 29.400 - 29.500 MHz
PANSAT 16 Sep 07:55:47 07:59:01 26° 199° (SSW) 08:02:15 not established
SO-67 16 Sep 08:14:47 08:18:02 40° 284° (WNW) 08:21:16 435.3500 MHz FM
JAS-2 16 Sep 08:30:12 08:32:09 12° 294° (WNW) 08:34:11 435.800 - 435.900 CW/SSB, 435.910 FM
HO-68 16 Sep 08:46:33 08:52:04 23° 97° (E) 08:57:32 435.675 MHz FM
SO-50 16 Sep 08:48:30 08:53:21 80° 63° (ENE) 08:58:13 436.795 FM
MaSat-1 16 Sep 08:49:55 08:54:47 65° 109° (ESE) 08:59:48 437.345 MHz
UOSAT-12 16 Sep 09:10:42 09:11:23 10° 48° (NE) 09:12:03 437.025 FM, 437.400 FM
Oscar 11 16 Sep 10:09:40 10:13:49 43° 99° (E) 10:17:55 145.825 FM, Beacon 2401.500 USB
UKube-1 16 Sep 10:22:23 10:26:45 87° 283° (WNW) 10:31:06 145.840 MHz, 145.915 MHz
ISS 16 Sep 10:23:35 10:25:21 14° 35° (NE) 10:27:07 145.800 FM
MaSat-1 16 Sep 10:29:41 10:32:00 13° 303° (WNW) 10:34:19 437.345 MHz
HO-68 16 Sep 10:33:01 10:39:54 51° 290° (WNW) 10:46:47 435.675 MHz FM
UOSAT-12 16 Sep 10:47:21 10:52:04 78° 244° (WSW) 10:56:39 437.025 FM, 437.400 FM
FUNcube-1 16 Sep 11:25:16 11:29:50 59° 284° (WNW) 11:34:19 145.950 - 145.970 MHz USB
RS-15 16 Sep 11:32:04 11:34:24 11° 27° (NNE) 11:36:45 29.354 - 29.394 USB, Beacon 29.352 USB
Oscar 11 16 Sep 11:47:52 11:49:33 12° 292° (WNW) 11:51:14 145.825 FM, Beacon 2401.500 USB
ISS 16 Sep 11:59:02 12:02:15 48° 229° (SW) 12:05:27 145.800 FM
Sapphire 16 Sep 12:06:35 12:11:16 31° 108° (ESE) 12:15:58 437.095 MHz 1200 baud AX-25 AFSK
PCSat 16 Sep 12:33:15 12:38:34 64° 112° (ESE) 12:43:56 145.825 MHz
Oscar 16 16 Sep 12:48:28 12:52:29 23° 69° (ENE) 12:56:32 437.025 USB, Beacon 2401.1428
ITAMSAT 1 16 Sep 13:24:41 13:28:27 21° 68° (ENE) 13:32:15 435.822 SSB
Uribyol 2 16 Sep 13:29:23 13:33:32 25° 70° (ENE) 13:37:42 436.500 FM
AO-Echo 16 Sep 13:30:32 13:34:29 26° 71° (ENE) 13:38:22 ?
RS-15 16 Sep 13:40:02 13:50:38 46° 55° (NE) 14:01:34 29.354 - 29.394 USB, Beacon 29.352 USB
Oscar 19 16 Sep 13:48:07 13:53:18 85° 257° (WSW) 13:58:31 437.125 CW, 437.150 USB
Sapphire 16 Sep 13:50:04 13:54:36 27° 302° (WNW) 13:59:10 437.095 MHz 1200 baud AX-25 AFSK
JAS-1B 16 Sep 13:56:22 14:05:27 65° 74° (ENE) 14:13:12 435.800 - 435.900 CW/SSB
AO-27 16 Sep 13:57:22 14:02:18 47° 73° (ENE) 14:07:15 436.795 MHz FM
PCSat 16 Sep 14:19:31 14:22:24 14° 307° (NW) 14:25:17 145.825 MHz
Oscar 16 16 Sep 14:27:02 14:31:36 32° 262° (W) 14:36:13 437.025 USB, Beacon 2401.1428
Gurwin Techsat 1B 16 Sep 14:29:58 14:34:58 44° 73° (ENE) 14:39:59 435.225 FM
AO-7 16 Sep 14:44:28 14:49:31 18° 58° (ENE) 14:54:33 29.400 - 29.500 MHz
ITAMSAT 1 16 Sep 15:02:59 15:07:39 35° 261° (W) 15:12:22 435.822 SSB
Oscar 10/S400 16 Sep 15:03:30 15:24:55 42° 151° (SSE) 15:44:29 145.825 - 145.975 CW/USB, Beacon 145.810 USB
Uribyol 2 16 Sep 15:08:24 15:12:49 29° 262° (W) 15:17:17 436.500 FM
TMSAT-1 16 Sep 15:09:01 15:14:17 80° 76° (ENE) 15:19:35 436.925 FM
AO-Echo 16 Sep 15:09:17 15:13:08 24° 263° (W) 15:16:56 ?
AO-27 16 Sep 15:39:06 15:41:58 15° 266° (W) 15:44:51 436.795 MHz FM
JAS-1B 16 Sep 15:49:08 15:55:58 23° 263° (W) 16:02:10 435.800 - 435.900 CW/SSB
RS-15 16 Sep 15:52:29 16:02:49 44° 252° (WSW) 16:13:37 29.354 - 29.394 USB, Beacon 29.352 USB
Gurwin Techsat 1B 16 Sep 16:11:42 16:15:03 17° 265° (W) 16:18:24 435.225 FM
Uosat F 16 Sep 16:14:51 16:19:44 58° 74° (ENE) 16:24:38 435.120 FM
Saudisat 1A 16 Sep 16:31:32 16:32:27 11° 107° (ESE) 16:33:21 436.775 MHz
AO-7 16 Sep 16:32:58 16:41:18 83° 254° (WSW) 16:49:38 29.400 - 29.500 MHz
JAS-2 16 Sep 16:51:28 16:54:28 15° 68° (ENE) 16:57:24 435.800 - 435.900 CW/SSB, 435.910 FM
OPAL 16 Sep 17:09:55 17:14:52 45° 102° (ESE) 17:19:43 ?
Uosat F 16 Sep 17:57:23 17:58:47 11° 267° (W) 18:00:11 435.120 FM
Hamsat 16 Sep 18:01:04 18:05:24 78° 77° (ENE) 18:09:46 145.90 MHz
Saudisat 1A 16 Sep 18:07:14 18:11:30 52° 300° (WNW) 18:15:49 436.775 MHz
AO-7 16 Sep 18:32:42 18:34:52 11° 267° (W) 18:37:03 29.400 - 29.500 MHz
JAS-2 16 Sep 18:33:55 18:39:14 47° 260° (W) 18:44:15 435.800 - 435.900 CW/SSB, 435.910 FM
SO-67 16 Sep 18:42:29 18:45:13 22° 74° (ENE) 18:47:58 435.3500 MHz FM
KITSAT 1 16 Sep 18:44:05 18:50:38 28° 105° (ESE) 18:57:10 435.175 FM
MaSat-1 16 Sep 18:49:50 18:53:10 32° 63° (ENE) 18:56:04 437.345 MHz
OPAL 16 Sep 18:50:05 18:53:18 17° 295° (WNW) 18:56:30 ?
STRAND 1 16 Sep 19:23:54 19:28:58 61° 101° (ESE) 19:34:02 ?
SO-67 16 Sep 20:16:32 20:18:11 13° 265° (W) 20:19:50 435.3500 MHz FM
KITSAT 1 16 Sep 20:37:45 20:45:33 51° 300° (WNW) 20:53:23 435.175 FM
HO-68 16 Sep 20:54:33 21:01:36 68° 72° (ENE) 21:08:41 435.675 MHz FM
Oscar 11 16 Sep 21:00:11 21:03:04 18° 70° (ENE) 21:05:58 145.825 FM, Beacon 2401.500 USB
STRAND 1 16 Sep 21:05:32 21:07:35 12° 294° (WNW) 21:09:38 ?
UKube-1 16 Sep 21:12:24 21:16:23 37° 73° (ENE) 21:20:22 145.840 MHz, 145.915 MHz
PCSat 16 Sep 21:28:25 21:31:46 16° 54° (NE) 21:35:06 145.825 MHz
FUNcube-1 16 Sep 22:15:49 22:20:00 52° 75° (ENE) 22:24:18 145.950 - 145.970 MHz USB
Oscar 11 16 Sep 22:35:10 22:38:58 30° 262° (W) 22:42:49 145.825 FM, Beacon 2401.500 USB
Sapphire 16 Sep 22:42:42 22:48:08 73° 65° (ENE) 22:53:31 437.095 MHz 1200 baud AX-25 AFSK
HO-68 16 Sep 22:45:27 22:49:41 17° 266° (W) 22:53:57 435.675 MHz FM
UKube-1 16 Sep 22:50:32 22:52:39 13° 265° (W) 22:54:47 145.840 MHz, 145.915 MHz
SO-50 16 Sep 22:58:01 23:02:26 80° 297° (WNW) 23:06:59 436.795 FM
PCSat 16 Sep 23:10:12 23:15:29 56° 249° (WSW) 23:20:45 145.825 MHz
Sapphire 17 Sep 00:30:31 00:30:50 10° 258° (WSW) 00:31:10 437.095 MHz 1200 baud AX-25 AFSK
UOSAT-12 17 Sep 00:52:50 00:57:22 67° 299° (WNW) 01:02:01 437.025 FM, 437.400 FM
PANSAT 17 Sep 00:53:31 00:54:14 10° 153° (SSE) 00:54:56 not established
Oscar 16 17 Sep 01:07:22 01:09:32 13° 93° (E) 01:11:41 437.025 USB, Beacon 2401.1428
AO-Echo 17 Sep 01:44:21 01:46:40 13° 95° (E) 01:49:01 ?
ITAMSAT 1 17 Sep 01:44:56 01:46:33 11° 93° (E) 01:48:11 435.822 SSB
Uribyol 2 17 Sep 01:48:55 01:51:39 14° 94° (E) 01:54:22 436.500 FM
